Bryce Canyon, UT

6:02 PM MDT on July 27, 2017 (GMT -0600)
Bryce Canyon

Weather History for KBCE - November, 2012

Change the Weather History Date:

Friday, November 16, 2012

  Actual Average Record
Temperature  
Mean Temperature 34 °F -  
Max Temperature 44 °F 43 °F 62 °F (2008)
Min Temperature 24 °F 17 °F -2 °F (2000)
Degree Days  
Heating Degree Days 31    
Moisture  
Dew Point 23 °F    
Average Humidity 67    
Maximum Humidity 92    
Minimum Humidity 38    
Precipitation  
Precipitation 0.00 in - - ()
Sea Level Pressure  
Sea Level Pressure 30.12 in    
Wind  
Wind Speed 4 mph (South)    
Max Wind Speed 15 mph    
Max Gust Speed -    
Visibility 10 miles    
Events      
Averages and records for this station are not official NWS values.
T = Trace of Precipitation, MM = Missing Value Source: NWS Daily Summary

Daily Weather History Graph

Daily Weather History Graph

Search for Another Location

Airport or City:

Trip Planner

Search our weather history database for the weather conditions in past years. The results will help you decide how hot, cold, wet, or windy it might be!

Date:

Astronomy

Nov. 16, 2012 Rise Set
Actual Time 7:10 AM MST 5:16 PM MST
Civil Twilight 6:42 AM MST 5:44 PM MST
Nautical Twilight 6:10 AM MST 6:16 PM MST
Astronomical Twilight 5:39 AM MST 6:47 PM MST
Moon 10:07 AM MST (11/16) 8:20 PM MST (11/16)
Length of Visible Light 11h 02m
Length of Day
10h 05m
Waxing Crescent, 12% of the Moon is Illuminated
Nov 16
Waxing Crescent
Nov 20
First Quarter
Nov 28
Full
Dec 6
Last Quarter
Dec 13
New

Hourly Weather History & Observations

Time (MST) Temp. Windchill Dew Point Humidity Pressure Visibility Wind Dir Wind Speed Gust Speed Precip Events Conditions
12:53 AM 27.0 °F - 18.0 °F 69% 30.14 in 10.0 mi Calm Calm - N/A   Partly Cloudy
1:53 AM 24.1 °F 19.7 °F 19.0 °F 81% 30.15 in 10.0 mi West 3.5 mph - N/A   Clear
2:53 AM 26.1 °F - 19.0 °F 75% 30.14 in 10.0 mi Calm Calm - N/A   Overcast
3:53 AM 27.0 °F 23.0 °F 21.0 °F 78% 30.11 in 10.0 mi SW 3.5 mph - N/A   Overcast
4:53 AM 26.1 °F - 21.0 °F 81% 30.14 in 10.0 mi Calm Calm - N/A   Mostly Cloudy
5:53 AM 28.0 °F 24.2 °F 21.9 °F 78% 30.17 in 10.0 mi SSW 3.5 mph - N/A   Overcast
6:53 AM 36.0 °F 30.3 °F 16.0 °F 44% 30.13 in 10.0 mi SE 6.9 mph - N/A   Overcast
7:53 AM 35.1 °F - 16.0 °F 46% 30.16 in 10.0 mi Calm Calm - N/A   Overcast
8:53 AM 37.9 °F - 18.0 °F 45% 30.17 in 10.0 mi Calm Calm - N/A   Overcast
9:53 AM 37.9 °F 32.7 °F 18.0 °F 45% 30.14 in 10.0 mi SE 6.9 mph - N/A   Overcast
10:53 AM 41.0 °F 34.3 °F 17.1 °F 38% 30.14 in 10.0 mi SSE 11.5 mph - N/A   Overcast
11:53 AM 43.0 °F 36.4 °F 19.0 °F 38% 30.13 in 10.0 mi SE 12.7 mph - N/A   Overcast
12:53 PM 42.1 °F 34.5 °F 24.1 °F 49% 30.10 in 10.0 mi SE 15.0 mph - N/A   Scattered Clouds
1:53 PM 44.1 °F 37.7 °F 30.0 °F 58% 30.08 in 10.0 mi SE 12.7 mph - N/A   Scattered Clouds
2:53 PM 43.0 °F 36.4 °F 30.0 °F 60% 30.07 in 10.0 mi SE 12.7 mph - N/A   Overcast
3:53 PM 42.1 °F 35.7 °F 30.0 °F 62% 30.07 in 10.0 mi SE 11.5 mph - N/A   Overcast
4:53 PM 39.9 °F 34.5 °F 30.0 °F 68% 30.09 in 10.0 mi South 8.1 mph - N/A   Mostly Cloudy
5:53 PM 37.0 °F 33.3 °F 30.0 °F 76% 30.10 in 10.0 mi South 4.6 mph - N/A   Scattered Clouds
6:53 PM 35.1 °F - 28.9 °F 78% 30.08 in 10.0 mi Calm Calm - N/A   Overcast
7:53 PM 32.0 °F 27.5 °F 28.0 °F 85% 30.11 in 10.0 mi WNW 4.6 mph - N/A   Mostly Cloudy
8:53 PM 28.0 °F - 26.1 °F 92% 30.12 in 10.0 mi Calm Calm - N/A   Partly Cloudy
9:53 PM 28.0 °F - 26.1 °F 92% 30.12 in 10.0 mi Calm Calm - N/A   Mostly Cloudy
10:53 PM 28.0 °F - 25.0 °F 88% 30.10 in 10.0 mi Calm Calm - N/A   Clear
11:53 PM 26.1 °F 21.9 °F 24.1 °F 92% 30.12 in 10.0 mi SSW 3.5 mph - N/A   Scattered Clouds